Tacoma, WA

1:43 AM PDT on October 17, 2017 (GMT -0700)
McChord Air Force Base

Weather History for KTCM - November, 2014

Change the Weather History Date:

Friday, November 21, 2014

  Actual Average Record
Temperature  
Mean Temperature 47 °F -  
Max Temperature 52 °F 47 °F 60 °F (2002)
Min Temperature 42 °F 34 °F 18 °F (1978)
Degree Days  
Heating Degree Days 18    
Moisture  
Dew Point 48 °F    
Average Humidity 99    
Maximum Humidity 100    
Minimum Humidity 90    
Precipitation  
Precipitation 0.55 in - - ()
Sea Level Pressure  
Sea Level Pressure 29.61 in    
Wind  
Wind Speed 5 mph (South)    
Max Wind Speed 23 mph    
Max Gust Speed 31 mph    
Visibility 8 miles    
Events Fog , Rain    
Averages and records for this station are not official NWS values.
T = Trace of Precipitation, MM = Missing Value Source: NWS Daily Summary

Daily Weather History Graph

Daily Weather History Graph

Search for Another Location

Airport or City:

Trip Planner

Search our weather history database for the weather conditions in past years. The results will help you decide how hot, cold, wet, or windy it might be!

Date:

Astronomy

Nov. 21, 2014 Rise Set
Actual Time 7:22 AM PST 4:28 PM PST
Civil Twilight 6:48 AM PST 5:02 PM PST
Nautical Twilight 6:11 AM PST 5:40 PM PST
Astronomical Twilight 5:34 AM PST 6:16 PM PST
Moon 6:18 AM PST (11/21) 4:21 PM PST (11/21)
Length of Visible Light 10h 14m
Length of Day
9h 06m
Waning Crescent, 1% of the Moon is Illuminated
Nov 21
Waning Crescent
Nov 22
New
Nov 29
First Quarter
Dec 6
Full
Dec 14
Last Quarter

Hourly Weather History & Observations

Time (PST) Temp. Windchill Dew Point Humidity Pressure Visibility Wind Dir Wind Speed Gust Speed Precip Events Conditions
12:03 AM 42.8 °F - 42.8 °F 100% 29.90 in 0.8 mi ESE 2.3 mph - N/A   Overcast
12:08 AM 44.6 °F - 44.6 °F 100% 29.90 in 1.2 mi SE 1.2 mph - N/A   Overcast
12:13 AM 44.6 °F - 44.6 °F 100% 29.90 in 1.0 mi ESE 2.3 mph - N/A   Overcast
12:18 AM 44.6 °F - 44.6 °F 100% 29.90 in 0.8 mi SE 2.3 mph - N/A   Overcast
12:23 AM 44.6 °F - 44.6 °F 100% 29.90 in 0.8 mi Calm Calm - N/A   Overcast
12:28 AM 44.6 °F - 44.6 °F 100% 29.90 in 0.5 mi Calm Calm - N/A Fog Fog
12:38 AM 44.6 °F - 44.6 °F 100% 29.89 in 0.5 mi Calm Calm - N/A Fog Fog
12:43 AM 44.6 °F - 44.6 °F 100% 29.90 in 0.8 mi Calm Calm - N/A   Overcast
12:48 AM 44.6 °F - 44.6 °F 100% 29.89 in 1.0 mi Calm Calm - N/A   Overcast
12:53 AM 44.6 °F - 44.6 °F 100% 29.89 in 1.2 mi Calm Calm - N/A   Overcast
12:55 AM 44.6 °F - 44.6 °F 100% 29.89 in 1.2 mi ESE 2.3 mph - N/A Rain Light Rain
12:58 AM 44.6 °F - 44.6 °F 100% 29.91 in 1.0 mi ESE 2.3 mph - N/A Rain Light Rain
1:08 AM 44.6 °F 43.1 °F 44.6 °F 100% 29.88 in 1.8 mi ESE 3.5 mph - N/A Rain Light Rain
1:13 AM 44.6 °F 42.2 °F 44.6 °F 100% 29.88 in 2.5 mi ESE 4.6 mph - N/A Rain Light Rain
1:15 AM 44.6 °F 43.1 °F 44.6 °F 100% 29.88 in 3.0 mi ESE 3.5 mph - N/A   Overcast
1:58 AM 44.8 °F - 44.8 °F 100% 29.89 in 10.0 mi West 2.3 mph - 0.00 in   Mostly Cloudy
2:58 AM 44.6 °F - 44.6 °F 100% 29.90 in 10.0 mi Calm Calm - N/A   Overcast
3:51 AM 44.6 °F - 44.6 °F 100% 29.85 in 10.0 mi Calm Calm - N/A Rain Light Rain
3:58 AM 44.4 °F - 44.4 °F 100% 29.87 in 10.0 mi Calm Calm - 0.00 in Rain Light Rain
4:00 AM 44.6 °F - 44.6 °F 100% 29.85 in 10.0 mi Calm Calm - N/A   Overcast
4:52 AM 44.6 °F - 44.6 °F 100% 29.83 in 9.0 mi Calm Calm - N/A Rain Light Rain
4:58 AM 44.2 °F - 44.2 °F 100% 29.85 in 8.0 mi Calm Calm - 0.01 in Rain Light Rain
5:17 AM 44.6 °F - 44.6 °F 100% 29.83 in 10.0 mi Calm Calm - N/A   Overcast
5:58 AM 44.1 °F 42.5 °F 44.1 °F 100% 29.82 in 10.0 mi SSE 3.5 mph - 0.00 in   Overcast
6:16 AM 44.6 °F - 44.6 °F 100% 29.78 in 10.0 mi South 2.3 mph - N/A Rain Light Rain
6:25 AM 44.6 °F - 44.6 °F 100% 29.78 in 10.0 mi South 2.3 mph - N/A   Overcast
6:31 AM 44.6 °F 43.1 °F 44.6 °F 100% 29.77 in 10.0 mi South 3.5 mph - N/A Rain Light Rain
6:45 AM 44.6 °F 41.4 °F 44.6 °F 100% 29.77 in 10.0 mi South 5.8 mph - N/A   Overcast
6:58 AM 45.9 °F 42.3 °F 45.9 °F 100% 29.79 in 10.0 mi South 6.9 mph - 0.00 in   Overcast
7:23 AM 48.2 °F - 48.2 °F 100% 29.75 in 10.0 mi South 6.9 mph - N/A Rain Light Rain
7:32 AM 48.2 °F - 48.2 °F 100% 29.75 in 10.0 mi South 6.9 mph - N/A   Overcast
7:58 AM 47.7 °F - 47.7 °F 100% 29.76 in 10.0 mi South 6.9 mph - 0.00 in   Scattered Clouds
8:12 AM 48.2 °F - 48.2 °F 100% 29.73 in 10.0 mi SSE 9.2 mph - N/A Rain Light Rain
8:24 AM 50.0 °F - 48.2 °F 94% 29.73 in 8.0 mi SSE 9.2 mph - N/A   Mostly Cloudy
8:26 AM 50.0 °F - 48.2 °F 94% 29.73 in 9.0 mi SSE 10.4 mph - N/A Rain Light Rain
8:49 AM 50.0 °F - 50.0 °F 100% 29.72 in 10.0 mi South 5.8 mph - N/A   Mostly Cloudy
8:58 AM 50.4 °F - 50.0 °F 99% 29.74 in 10.0 mi South 5.8 mph - 0.01 in   Overcast
9:52 AM 51.8 °F - 50.0 °F 94% 29.69 in 9.0 mi South 8.1 mph - N/A Rain Light Rain
9:58 AM 52.0 °F - 49.3 °F 90% 29.70 in 9.0 mi South 8.1 mph - 0.01 in Rain Light Rain
10:58 AM 51.4 °F - 50.5 °F 97% 29.68 in 10.0 mi SSE 6.9 mph - 0.02 in Rain Light Rain
11:58 AM 50.5 °F - 50.4 °F 99% 29.62 in 7.0 mi SE 11.5 mph - 0.04 in Rain Light Rain
12:58 PM 50.0 °F - 49.8 °F 99% 29.56 in 10.0 mi SE 11.5 mph - 0.07 in Rain Light Rain
1:58 PM 49.5 °F - 49.1 °F 99% 29.48 in 4.0 mi ESE 6.9 mph - 0.04 in Rain Rain
2:54 PM 50.0 °F - 50.0 °F 100% 29.39 in 10.0 mi SSE 4.6 mph - N/A   Overcast
2:58 PM 49.5 °F - 49.3 °F 99% 29.41 in 10.0 mi SE 5.8 mph - 0.09 in   Overcast
3:23 PM 50.0 °F - 50.0 °F 100% 29.37 in 10.0 mi SSE 4.6 mph - N/A Rain Light Rain
3:58 PM 49.5 °F - 49.3 °F 99% 29.36 in 8.0 mi Calm Calm - 0.03 in Rain Light Rain
4:08 PM 50.0 °F - 48.2 °F 94% 29.33 in 2.5 mi South 1.2 mph - N/A Rain Rain
4:18 PM 50.0 °F - 50.0 °F 100% 29.33 in 6.0 mi South 4.6 mph - N/A Rain Light Rain
4:28 PM 50.0 °F - 50.0 °F 100% 29.33 in 10.0 mi SW 3.5 mph - N/A Rain Light Rain
4:58 PM 49.8 °F - 49.5 °F 99% 29.34 in 4.0 mi Calm Calm - 0.09 in Rain Light Rain
5:18 PM 50.0 °F - 50.0 °F 100% 29.31 in 7.0 mi South 10.4 mph - N/A Rain Light Rain
5:33 PM 50.0 °F - 50.0 °F 100% 29.31 in 10.0 mi South 18.4 mph - N/A Rain Light Rain
5:40 PM 51.8 °F - 51.8 °F 100% 29.31 in 10.0 mi South 10.4 mph - N/A   Overcast
5:44 PM 51.8 °F - 50.0 °F 94% 29.31 in 10.0 mi South 11.5 mph - N/A Rain Light Rain
5:54 PM 51.8 °F - 50.0 °F 94% 29.31 in 8.0 mi SSW 6.9 mph - N/A Rain Light Rain
5:58 PM 51.8 °F - 50.0 °F 94% 29.34 in 9.0 mi South 8.1 mph - 0.09 in Rain Light Rain
6:07 PM 51.8 °F - 51.8 °F 100% 29.32 in 10.0 mi South 12.7 mph - N/A   Overcast
6:17 PM 51.8 °F - 51.8 °F 100% 29.33 in 10.0 mi SSW 15.0 mph - N/A   Overcast
6:20 PM 51.8 °F - 51.8 °F 100% 29.33 in 10.0 mi SSW 20.7 mph 27.6 mph N/A Rain Light Rain
6:25 PM 51.8 °F - 51.8 °F 100% 29.33 in 9.0 mi South 23.0 mph 31.1 mph N/A Rain Light Rain
6:30 PM 51.8 °F - 51.8 °F 100% 29.34 in 7.0 mi SSW 21.9 mph 31.1 mph N/A Rain Light Rain
6:35 PM 51.8 °F - 51.8 °F 100% 29.35 in 6.0 mi SSW 23.0 mph 31.1 mph N/A Rain Light Rain
6:40 PM 51.8 °F - 51.8 °F 100% 29.35 in 7.0 mi SSW 21.9 mph 31.1 mph N/A Rain Light Rain
6:50 PM 51.8 °F - 51.8 °F 100% 29.36 in 9.0 mi SSW 18.4 mph 29.9 mph N/A Rain Light Rain
6:58 PM 51.8 °F - 51.6 °F 99% 29.37 in 8.0 mi SSW 19.6 mph 29.9 mph 0.04 in Rain Light Rain
7:03 PM 51.8 °F - 51.8 °F 100% 29.37 in 10.0 mi SSW 21.9 mph 28.8 mph N/A Rain Light Rain
7:08 PM 51.8 °F - 51.8 °F 100% 29.38 in 9.0 mi SSW 20.7 mph 28.8 mph N/A Rain Light Rain
7:13 PM 51.8 °F - 51.8 °F 100% 29.38 in 9.0 mi SSW 20.7 mph 25.3 mph N/A Rain Light Rain
7:24 PM 51.8 °F - 50.0 °F 94% 29.39 in 10.0 mi SW 17.3 mph - N/A   Mostly Cloudy
7:58 PM 50.0 °F - 49.8 °F 99% 29.42 in 10.0 mi SW 17.3 mph 21.9 mph 0.01 in   Mostly Cloudy
8:58 PM 48.9 °F - 48.6 °F 99% 29.47 in 10.0 mi South 11.5 mph - N/A   Partly Cloudy
9:54 PM 48.2 °F - 48.2 °F 100% 29.48 in 10.0 mi South 12.7 mph - N/A Rain Light Rain
9:58 PM 48.7 °F - 48.4 °F 99% 29.50 in 10.0 mi South 13.8 mph - 0.00 in Rain Light Rain
10:03 PM 48.2 °F - 48.2 °F 100% 29.49 in 10.0 mi South 12.7 mph - N/A   Mostly Cloudy
10:33 PM 48.2 °F - 46.4 °F 93% 29.50 in 10.0 mi South 13.8 mph - N/A   Mostly Cloudy
10:58 PM 46.4 °F 41.1 °F 46.4 °F 100% 29.54 in 10.0 mi South 11.5 mph - 0.00 in   Mostly Cloudy
11:12 PM 48.2 °F - 46.4 °F 93% 29.53 in 10.0 mi SSW 12.7 mph - N/A Rain Light Rain
11:23 PM 48.2 °F - 46.4 °F 93% 29.54 in 10.0 mi SSW 11.5 mph - N/A   Mostly Cloudy
11:58 PM 47.3 °F - 46.9 °F 99% 29.57 in 10.0 mi SSW 12.7 mph - 0.00 in   Mostly Cloudy